This demonstration page uses our WeatherBlox Daily Observations layout. Learn more.

Left ArrowRight Arrow

34.02893, -84.19858

Hourly Observations for March 7, 2022

Temp ( °F °C ) Dew Point ( °F °C ) Humidity (%) Winds ( mph kmh ) Pressure ( in mb ) Visibility ( mi km ) Precip ( " mm )
12:53 am 00:53 Clear 66 18.9 55 12.8 68 68 S 8 13 30.09 1019 10 16 0.00 0.00
1:53 am 01:53 Mostly Clear 65 18.3 56 13.3 73 73 S 9 15 30.07 1018 10 16 0.00 0.00
2:53 am 02:53 Mostly Cloudy 65 18.3 57 13.9 76 76 SSW 8 13 30.05 1018 10 16 0.00 0.00
3:53 am 03:53 Mostly Clear 63 17.2 57 13.9 81 81 S 6 9 30.03 1017 10 16 0.00 0.00
4:53 am 04:53 Clear 62 16.7 57 13.9 84 84 S 7 11 30.03 1017 10 16 0.00 0.00
5:53 am 05:53 Clear 61 16.1 56 13.3 84 84 SSE 5 7 30.05 1018 10 16 0.00 0.00
6:53 am 06:53 Clear 60 15.6 57 13.9 90 90 S 5 7 30.08 1019 10 16 0.00 0.00
7:53 am 07:53 Cloudy 60 15.6 57 13.9 90 90 SSE 6 9 30.08 1019 9 14 0.00 0.00
7:57 am 07:57 Cloudy 60 15.6 57 13.9 90 90 SSE 6 9 30.10 1019 9 14 0.00 0.00
8:53 am 08:53 Cloudy 63 17.2 58 14.4 84 84 S 9 15 30.09 1019 8 13 0.00 0.00
9:48 am 09:48 Cloudy 66 19 59 15 78 78 S 9 15 30.09 1019 8 13 0.00 0.00
9:53 am 09:53 Cloudy 66 18.9 59 15 78 78 SSW 13 20 30.09 1019 8 13 0.00 0.00
10:53 am 10:53 Cloudy 67 19.4 59 15 76 76 SSW 13 20 30.06 1018 9 14 0.00 0.00
11:53 am 11:53 Cloudy 71 21.7 60 15.6 68 68 SSW 20 31 30.03 1017 9 14 0.00 0.00
12:53 pm 12:53 Cloudy 70 21.1 60 15.6 71 71 SW 15 24 30.02 1017 10 16 0.00 0.00
1:53 pm 13:53 Cloudy 71 21.7 62 16.7 73 73 SW 12 19 29.98 1015 10 16 0.00 0.00
2:53 pm 14:53 Cloudy 71 21.7 63 17.2 76 76 SSW 12 19 29.96 1014 10 16 0.00 0.00
3:53 pm 15:53 Mostly Cloudy 70 21.1 62 16.7 76 76 SSW 13 20 29.94 1014 10 16 0.00 0.00
4:38 pm 16:38 Mostly Cloudy with Heavy Rain 64 17.8 61 16.1 90 90 NW 18 30 29.99 1016 2 3 0.06 1.52
4:44 pm 16:44 Mostly Cloudy with Light Rain 63 17.2 60 15.6 90 90 WNW 17 28 30.00 1016 2 3 0.06 1.52
4:53 pm 16:53 Cloudy 63 17.2 60 15.6 90 90 WNW 13 20 30.00 1016 10 16 0.06 1.52
5:03 pm 17:03 Cloudy with Light Rain 63 17.2 60 15.6 90 90 NW 20 31 30.00 1016 10 16 0.00 0.00
5:15 pm 17:15 Cloudy with Light Rain 61 16.1 56 13.3 84 84 WNW 13 20 30.03 1017 9 14 0.00 0.00
5:31 pm 17:31 Cloudy with Light Rain 60 15.6 56 13.3 86 86 W 7 11 30.04 1017 3 4 0.05 1.27
5:40 pm 17:40 Cloudy with Light Rain 60 15.6 57 13.9 90 90 W 8 13 30.05 1018 9 14 0.05 1.27
5:53 pm 17:53 Cloudy with Light Rain 59 15 56 13.3 90 90 WNW 6 9 30.04 1017 8 13 0.05 1.27
6:14 pm 18:14 Cloudy with Light Rain 58 14.4 56 13.3 93 93 W 6 9 30.04 1017 3 4 0.04 1.02
6:21 pm 18:21 Cloudy with Light Rain 58 14.4 56 13.3 93 93 WSW 8 13 30.05 1018 7 11 0.04 1.02
6:53 pm 18:53 Cloudy 57 13.9 55 12.8 93 93 SW 3 6 30.03 1017 10 16 0.04 1.02
7:53 pm 19:53 Cloudy 57 13.9 56 13.3 96 96 W 3 6 30.03 1017 10 16 0.00 0.00
8:53 pm 20:53 Partly Cloudy 56 13.3 55 12.8 97 97 WNW 5 7 30.03 1017 10 16 0.00 0.00
9:53 pm 21:53 Clear 56 13.3 54 12.2 93 93 WNW 8 13 30.04 1017 10 16 0.00 0.00
10:53 pm 22:53 Clear 55 12.8 52 11.1 90 90 WNW 8 13 30.05 1018 10 16 0.00 0.00
11:53 pm 23:53 Clear 53 11.7 49 9.4 86 86 NW 10 17 30.04 1017 10 16 0.00 0.00

Powered by AerisWeather